• In Hungary
  • List of Countries
  • For 7 days
  • Water Temperature
  • Satellite Maps
  • Weather Map
  • News
  • Weather Widgets
  • user-avatar
    Login

    Hourly Weather Nazarkino

    Today, 21 May, Monday

    Time Temperature Precipitation Wind Pressure Humidity
    00:00 +19°C° 0.8 mm 1 mps 745 mmHg 81%
    01:00 +18°C° 0.8 mm 1 mps 745 mmHg 85%
    02:00 +18°C° 0 mm 1 mps 745 mmHg 85%
    03:00 +18°C° 0 mm 1 mps 745 mmHg 85%
    04:00 +18°C° 0 mm 1 mps 745 mmHg 86%
    05:00 +19°C° 0.5 mm 1 mps 745 mmHg 84%
    06:00 +20°C° 0.5 mm 1 mps 746 mmHg 82%
    07:00 +21°C° 0.5 mm 1 mps 746 mmHg 80%
    08:00 +23°C° 0.5 mm 1 mps 746 mmHg 75%
    09:00 +24°C° 0.5 mm 2 mps 746 mmHg 70%
    10:00 +26°C° 0 mm 3 mps 746 mmHg 62%
    11:00 +25°C° 2.2 mm 3 mps 747 mmHg 65%
    12:00 +24°C° 2.2 mm 2 mps 747 mmHg 69%
    13:00 +23°C° 2.2 mm 2 mps 747 mmHg 72%
    14:00 +23°C° 0.4 mm 2 mps 747 mmHg 71%
    15:00 +24°C° 0.4 mm 3 mps 747 mmHg 70%
    16:00 +24°C° 0.4 mm 3 mps 747 mmHg 69%
    17:00 +22°C° 0.1 mm 3 mps 747 mmHg 72%
    18:00 +21°C° 0.1 mm 4 mps 747 mmHg 76%
    19:00 +19°C° 0.1 mm 4 mps 747 mmHg 79%
    20:00 +18°C° 0 mm 4 mps 748 mmHg 80%
    21:00 +15°C° 0 mm 4 mps 748 mmHg 80%
    22:00 +13°C° 0 mm 5 mps 749 mmHg 81%
    23:00 +13°C° 0 mm 4 mps 749 mmHg 81%

    Tomorrow, 22 May, Tuesday

    Time Temperature Precipitation Wind Pressure Humidity
    00:00 +12°C° 0 mm 4 mps 749 mmHg 81%
    01:00 +11°C° 0 mm 4 mps 750 mmHg 81%
    02:00 +11°C° 0 mm 4 mps 750 mmHg 82%
    03:00 +10°C° 0 mm 4 mps 750 mmHg 84%
    04:00 +8°C° 0 mm 4 mps 751 mmHg 86%
    05:00 +10°C° 0 mm 4 mps 751 mmHg 81%
    06:00 +10°C° 0 mm 5 mps 751 mmHg 77%
    07:00 +12°C° 0 mm 5 mps 752 mmHg 72%
    08:00 +13°C° 0 mm 5 mps 752 mmHg 64%
    09:00 +15°C° 0 mm 5 mps 752 mmHg 56%
    10:00 +16°C° 0 mm 5 mps 752 mmHg 48%
    11:00 +17°C° 0 mm 5 mps 752 mmHg 46%
    12:00 +19°C° 0 mm 5 mps 752 mmHg 43%
    13:00 +20°C° 0 mm 5 mps 752 mmHg 41%
    14:00 +21°C° 0 mm 5 mps 752 mmHg 43%
    15:00 +21°C° 0 mm 5 mps 752 mmHg 45%
    16:00 +21°C° 0 mm 5 mps 752 mmHg 47%
    17:00 +20°C° 0 mm 5 mps 752 mmHg 53%
    18:00 +19°C° 0 mm 4 mps 752 mmHg 59%
    19:00 +18°C° 0 mm 3 mps 752 mmHg 65%
    20:00 +16°C° 0 mm 3 mps 752 mmHg 69%
    21:00 +14°C° 0 mm 3 mps 753 mmHg 72%
    22:00 +14°C° 0 mm 2 mps 753 mmHg 75%
    23:00 +13°C° 0 mm 2 mps 753 mmHg 78%

    Day after tomorrow, 23 May, Wednesday

    Time Temperature Precipitation Wind Pressure Humidity
    00:00 +13°C° 0 mm 2 mps 753 mmHg 80%
    01:00 +13°C° 0 mm 2 mps 753 mmHg 83%
    02:00 +12°C° 0 mm 2 mps 753 mmHg 84%
    03:00 +12°C° 0 mm 2 mps 753 mmHg 85%
    04:00 +12°C° 0 mm 2 mps 753 mmHg 86%
    05:00 +14°C° 0 mm 2 mps 754 mmHg 81%
    06:00 +15°C° 0 mm 1 mps 754 mmHg 76%
    07:00 +18°C° 0 mm 1 mps 754 mmHg 71%
    08:00 +20°C° 0 mm 1 mps 754 mmHg 65%
    09:00 +22°C° 0 mm 1 mps 754 mmHg 59%
    10:00 +24°C° 0 mm 1 mps 754 mmHg 53%
    11:00 +25°C° 0 mm 1 mps 754 mmHg 50%
    12:00 +26°C° 0 mm 1 mps 754 mmHg 48%
    13:00 +26°C° 0 mm 1 mps 754 mmHg 45%
    14:00 +26°C° 0 mm 1 mps 753 mmHg 45%
    15:00 +27°C° 0 mm 1 mps 753 mmHg 46%
    16:00 +27°C° 0 mm 2 mps 753 mmHg 46%
    17:00 +26°C° 0 mm 1 mps 753 mmHg 51%
    18:00 +25°C° 0 mm 1 mps 752 mmHg 56%
    19:00 +24°C° 0 mm 1 mps 752 mmHg 61%
    20:00 +22°C° 0 mm 1 mps 752 mmHg 63%
    21:00 +21°C° 0 mm 1 mps 752 mmHg 66%
    22:00 +19°C° 0 mm 1 mps 752 mmHg 68%
    23:00 +18°C° 0 mm 1 mps 752 mmHg 69%

    24 May, Thursday

    Time Temperature Precipitation Wind Pressure Humidity
    00:00 +18°C° 0 mm 1 mps 751 mmHg 70%
    01:00 +18°C° 0 mm 1 mps 751 mmHg 71%
    02:00 +16°C° 0 mm 1 mps 751 mmHg 72%
    03:00 +16°C° 0 mm 1 mps 751 mmHg 74%
    04:00 +15°C° 0 mm 1 mps 751 mmHg 75%
    05:00 +17°C° 0 mm 2 mps 750 mmHg 72%
    06:00 +18°C° 0 mm 2 mps 750 mmHg 70%
    07:00 +20°C° 0 mm 2 mps 750 mmHg 67%
    08:00 +21°C° 0 mm 3 mps 750 mmHg 63%
    09:00 +24°C° 0 mm 3 mps 749 mmHg 58%
    10:00 +25°C° 0 mm 4 mps 749 mmHg 54%
    11:00 +26°C° 0 mm 4 mps 748 mmHg 50%
    12:00 +27°C° 0 mm 5 mps 748 mmHg 47%
    13:00 +28°C° 0 mm 5 mps 748 mmHg 43%
    14:00 +28°C° 0 mm 5 mps 747 mmHg 44%
    15:00 +28°C° 0 mm 5 mps 747 mmHg 45%
    16:00 +28°C° 0 mm 5 mps 746 mmHg 46%
    17:00 +27°C° 0 mm 4 mps 746 mmHg 51%
    18:00 +25°C° 0 mm 3 mps 745 mmHg 57%
    19:00 +24°C° 0 mm 3 mps 745 mmHg 62%
    20:00 +23°C° 0 mm 2 mps 744 mmHg 64%
    21:00 +20°C° 0 mm 2 mps 744 mmHg 65%
    22:00 +20°C° 0 mm 1 mps 744 mmHg 67%
    23:00 +18°C° 0 mm 2 mps 743 mmHg 68%

    25 May, Friday

    Time Temperature Precipitation Wind Pressure Humidity
    00:00 +18°C° 0 mm 2 mps 743 mmHg 68%
    01:00 +17°C° 0 mm 2 mps 743 mmHg 68%
    02:00 +17°C° 0 mm 2 mps 742 mmHg 69%
    03:00 +17°C° 0 mm 2 mps 742 mmHg 69%
    04:00 +16°C° 0 mm 2 mps 742 mmHg 69%
    05:00 +18°C° 0 mm 3 mps 742 mmHg 68%
    06:00 +19°C° 0 mm 3 mps 741 mmHg 66%
    07:00 +20°C° 0 mm 3 mps 741 mmHg 65%
    08:00 +22°C° 0 mm 4 mps 741 mmHg 60%
    09:00 +23°C° 0 mm 5 mps 740 mmHg 55%
    10:00 +26°C° 0 mm 5 mps 740 mmHg 49%
    11:00 +27°C° 0 mm 6 mps 739 mmHg 46%
    12:00 +27°C° 0 mm 7 mps 738 mmHg 43%
    13:00 +28°C° 0 mm 8 mps 738 mmHg 40%
    14:00 +28°C° 0 mm 7 mps 737 mmHg 43%
    15:00 +27°C° 0 mm 7 mps 737 mmHg 46%
    16:00 +27°C° 0 mm 6 mps 736 mmHg 50%
    17:00 +25°C° 0.1 mm 5 mps 736 mmHg 59%
    18:00 +22°C° 0.1 mm 5 mps 736 mmHg 67%
    19:00 +20°C° 0.1 mm 4 mps 736 mmHg 76%
    20:00 +19°C° 0.1 mm 3 mps 736 mmHg 81%
    21:00 +17°C° 0.1 mm 3 mps 736 mmHg 86%
    22:00 +16°C° 0.1 mm 2 mps 736 mmHg 91%
    23:00 +14°C° 0 mm 3 mps 736 mmHg 91%

    26 May, Saturday

    Time Temperature Precipitation Wind Pressure Humidity
    00:00 +13°C° 0 mm 4 mps 736 mmHg 91%
    01:00 +12°C° 0 mm 4 mps 736 mmHg 91%
    02:00 +11°C° 0 mm 4 mps 736 mmHg 89%
    03:00 +10°C° 0 mm 4 mps 737 mmHg 88%
    04:00 +8°C° 0 mm 4 mps 737 mmHg 87%
    05:00 +8°C° 0 mm 4 mps 737 mmHg 85%
    06:00 +7°C° 0 mm 4 mps 737 mmHg 83%
    07:00 +7°C° 0 mm 4 mps 737 mmHg 81%
    08:00 +8°C° 0 mm 4 mps 738 mmHg 78%
    09:00 +8°C° 0 mm 4 mps 738 mmHg 74%
    10:00 +10°C° 0 mm 4 mps 738 mmHg 71%
    11:00 +11°C° 0 mm 4 mps 738 mmHg 69%
    12:00 +11°C° 0 mm 4 mps 738 mmHg 67%
    13:00 +12°C° 0 mm 4 mps 738 mmHg 65%
    14:00 +13°C° 0 mm 4 mps 738 mmHg 64%
    15:00 +13°C° 0 mm 4 mps 739 mmHg 63%
    16:00 +13°C° 0 mm 4 mps 739 mmHg 62%
    17:00 +13°C° 0 mm 4 mps 739 mmHg 66%
    18:00 +12°C° 0 mm 5 mps 739 mmHg 70%
    19:00 +12°C° 0 mm 5 mps 739 mmHg 73%
    20:00 +10°C° 0.1 mm 6 mps 740 mmHg 75%
    21:00 +9°C° 0.1 mm 7 mps 740 mmHg 77%
    22:00 +8°C° 0.1 mm 7 mps 740 mmHg 79%
    23:00 +6°C° 0.4 mm 8 mps 740 mmHg 81%
    Show more